Tracking 26442 objects as of 6-Dec-2022
HD Live streaming from Space Station
objects crossing your sky now

SSC

Track SSC now!
10-day predictions
SSC is classified as:


NORAD ID: 13874
Int'l Code: 1983-008H
Perigee: 395.1 km
Apogee: 1,676.5 km
Inclination: 63.3 °
Period: 105.7 minutes
Semi major axis: 7406 km
RCS: Unknown
Launch date: February 9, 1983
Source: United States (US)
Launch site: AIR FORCE WESTERN TEST RANGE (AFWTR)
aabbcc
Your satellite tracking list
Your tracking list is empty




NASA's NSSDC Master Catalog

Two Line Element Set (TLE):
1 13874U 83008H   22339.87484358  .00003392  00000-0  28957-3 0  9999
2 13874  63.2975 288.0934 0865004 112.2930 257.2084 13.61927332174661
Source of the keplerian elements: McCants